Weather in Schouwen-Duiveland

Netherlands     51°41′00″N   3°57′44″E
temp.,
°C
wind,
m/s
gust,
m/s
humid.,
%
clouds,
%
prec.,
mm/h
press.,
hPa
HPBL,
m
4 july, mon
mon423:00+17w45710 0.0 1020522
02:00+17sw57775 0.1 1019494
05:00+17sw6776100 0.2 1019476
08:00+18wnw446921 0.3 1020594
11:00+18w56715 0.1 1020707
14:00+18wnw55685 0.1 1020471
17:00+18w46685 0.0 1020436
20:00+18w45691 0.0 1019325
5 july, tue
tue523:00+18nw34740 0.0 1020457
02:00+17ne01727 0.0 1021232
05:00+17w1373100 0.0 1021433
08:00+17nnw6572100 0.1 1022650
11:00+16nw77695 0.0 1023792
14:00+16nw7870100 0.0 1024890
17:00+16nw68679 0.0 1025886
20:00+16nw57654 0.0 1025788
6 july, wed
wed623:00+15nnw34665 0.0 1026530
02:00+15nw4466100 0.0 1026476
05:00+16w3363100 0.0 1026400
08:00+16sw5568100 0.0 1026433
11:00+17sw5674100 0.0 1025566
14:00+17w788288 0.0 1025670
17:00+18w81082100 0.0 1024650
20:00+18wnw688093 0.1 1023514
7 july, thu
thu723:00+18wnw5783100 0.0 1023427
02:00+18wsw478050 0.1 1021386
05:00+18wnw11128599 0.4 1020796
08:00+17nw11138559 0.8 1021857
11:00+17nnw11137844 0.5 10231041
14:00+17nnw12127766 0.7 10251040
17:00+17nnw1111712 0.0 10271128
20:00+16n1011710 0.1 10281072
8 july, fri
fri823:00+16n89724 0.0 1029853
02:00+16n68755 0.0 1030652
05:00+16nnw67745 0.0 1030579
08:00+16nnw67765 0.0 1030637
11:00+17nnw457626 0.0 1031565
14:00+17nw447313 0.0 1031400
17:00+18wnw3366100 0.0 1029318
20:00+18nw4566100 0.0 1029406